Regional Weather Roundup
Issued by NWS Wakefield, VA

Home | Current Version | Previous Version | Graphics & Text | Print | Product List | Glossary On
Versions: 1 2 3 4 5 6 7 8 9 10 11 12 13 14 15 16 17 18 19 20 21 22 23 24 25 26 27 28 29 30 31 32 33 34 35 36 37 38 39 40 41 42 43 44 45 46 47 48 49 50
000
ASUS41 KAKQ 281310
RWRAKQ

REGIONAL WEATHER ROUNDUP
NATIONAL WEATHER SERVICE WAKEFIELD VA
800 AM EST WED JAN 28 2015

Note: "fair" indicates few or no clouds below 12,000 feet with no
significant weather and/or obstructions to visibility. * = Denotes
station may not report precipitation (e.g., rain,snow,etc.),
thunder or fog.

VAZ042-051-052>054-056-281400-
NORTHERN VIRGINIA

CITY           SKY/WX    TMP DP  RH WIND       PRES   REMARKS
WASH NATIONAL  CLEAR     25   7  46 NW13G21   30.20R WCI  14
DULLES         CLEAR     21   7  54 NW13      30.19R WCI   9
FORT BELVOIR   CLEAR     24   6  47 N12G21    30.20R WCI  12
QUANTICO       CLEAR     25   9  50 N8        30.22R
FREDERICKSBRG* CLEAR     25  12  57 NW5       30.19R
STAFFORD*      CLEAR     24   8  50 NW13      30.23R WCI  12
WARRENTON      CLEAR     26  15  62 N8        30.18R
CULPEPER*      CLEAR     25  10  54 CALM      30.18R
MANASSAS*      CLEAR     21  12  68 N8          N/A
LEESBURG*      CLEAR     23  12  63 NW16G23   30.20R WCI  10
WINCHESTER     CLEAR     21   7  53 NW10      30.19R WCI  10
FRONT ROYAL*   FAIR      23   7  50 NE3       30.18R
LURAY*         FAIR      23  14  68 SE5       30.18R
$$

VAZ048-049-060>072-079>083-281400-
CENTRAL AND SOUTH CENTRAL VIRGINIA

CITY           SKY/WX    TMP DP  RH WIND       PRES   REMARKS
RICHMOND       CLEAR     27  12  53 N6        30.19R
CHESTERFIELD*  FAIR      25   7  46 CALM      30.20R
PETERSBURG*    CLEAR     28  13  54 N6        30.19R
HANOVER        CLEAR     24  10  55 CALM      30.20R
TAPPAHANNOCK*  CLEAR     26   7  45 NW9       30.19R
QUINTON*       FAIR      25  10  54 N6        30.19R
CHARLOTTSVILLE CLEAR     27   6  41 NW3       30.15R
GORDONSVILLE*  FAIR      19  15  85 CALM      30.16R
ORANGE*        CLEAR     21  18  86 CALM      30.18R
LOUISA*        CLEAR     18  14  86 E3        30.16R
BUMPASS*       FAIR      23  13  65 CALM      30.18R
FARMVILLE*     CLEAR     26  16  67 CALM      30.17R
CREWE*         FAIR      24  15  68 CALM      30.16R
FORT PICKETT*  FAIR      26  16  67 N5        30.16R
CHASE CITY*    FAIR      27  18  69 NW3       30.17R
CLARKSVILLE*   FAIR      27  16  63 CALM      30.17R
SOUTH HILL*    CLEAR     24  16  70 CALM      30.22R
LAWRENCEVILLE* FAIR      25  19  80 CALM      30.16R
EMPORIA*       CLEAR     27  19  74 NW3       30.20R
$$

VAZ088>098-281400-
SOUTHEAST VIRGINIA

CITY           SKY/WX    TMP DP  RH WIND       PRES   REMARKS
NORFOLK        CLEAR     29  17  61 N9G17     30.15R
VIRGINIA BEACH PTCLDY    30  18  60 N18       30.14R WCI  18
NORFOLK NAVAL  PTCLDY    30  15  53 NW16G22   30.18R WCI  19
WEST POINT*    CLEAR     28  10  48 NW9       30.20R
SALUDA*        FAIR      25  12  57 NW13G22   30.16R WCI  14
NEWPORT NEWS   CLEAR     30  13  49 N9        30.17R
LANGLEY AFB    CLEAR     27  14  58 N10       30.17R WCI  17
FORT EUSTIS    CLEAR     27  15  61 N12G17    30.16R WCI  17
WILLIAMSBURG*    N/A     28  16  59 N10       30.19R WCI  19
HR EXEC AP*    FAIR      28  14  54 N7        30.19R
FRANKLIN*      CLEAR     27  13  55 N7        30.19R
WAKEFIELD      CLEAR     27  11  51 N6        30.18R
$$

VAZ020-022-025-037-045-281400-
WEST CENTRAL AND SOUTHWEST VIRGINIA

CITY           SKY/WX    TMP DP  RH WIND       PRES   REMARKS
STAUNTON*      CLEAR     16  13  86 CALM      30.19R
WAYNESBORO*    FAIR      18  11  76 W3        30.14R
HOT SPRINGS VA CLEAR     11  10  94 W18       30.00R WCI  -7
LYNCHBURG      CLEAR     26  12  55 VRB6      30.18R
DANVILLE       CLEAR     28  14  55 NW8       30.20R
SOUTH BOSTON*  FAIR      24  14  67 CALM      30.20R
MARTINSVILLE   CLEAR     26  15  61 N9        30.22R
ROANOKE        CLEAR     23  12  62 W8        30.22R
BLACKSBURG     CLEAR     17  11  76 W6        30.21R
DUBLIN*        CLEAR     21  15  77 NW9       30.20R
MARION*        FLURRIES  20  14  77 W12       30.21R WCI   8
HILLSVILLE*    PTCLDY    18  13  82 NW10      30.14R WCI   6
RICHLANDS*     LGT SNOW  16  11  80 CALM      30.20R
WISE*          CLEAR     16  14  93 CALM      30.22R
ABINGDON*      CLEAR     18  14  86 CALM      30.24R
$$

MDZ021>025-VAZ099-100-281400-
SOUTHERN MARYLAND AND THE DELMARVA PENINSULA

CITY           SKY/WX    TMP DP  RH WIND       PRES   REMARKS
PATUXENT RIVER CLEAR     25  10  53 NW21      30.17R WCI  11
BAY BRIDGE APT   N/A     25   9  50 NW13G20   30.18R WCI  13
LEONARDTOWN    FAIR      23  10  58 W8        30.19R
DOVER          CLEAR     21   5  49 NW14      30.12R WCI   8
GEORGETOWN     CLEAR     22   5  48 VRB6G17   30.12R
EASTON         CLEAR     27  10  50 N14       30.19R WCI  15
CAMBRIDGE      CLEAR     28   9  43 NW15G21   30.15R WCI  17
SALISBURY      CLEAR     26   7  44 NW13      30.13R WCI  15
OCEAN CITY     CLEAR     23   7  50 NW15G23   30.11R WCI  10
WALLOPS ISLAND CLEAR     24   8  50 N12       30.13R WCI  13
ACCOMACK*      CLEAR     28  12  50 NW16G26   30.13R WCI  17
$$

NCZ012>017-030>032-281400-
NORTH CENTRAL AND EASTERN NORTH CAROLINA

CITY           SKY/WX    TMP DP  RH WIND       PRES   REMARKS
ROANOKE RAPIDS FAIR      28  21  74 N6        30.18R
RALEIGH        CLEAR     26  13  57 CALM      30.18R
ELIZABETH CITY CLEAR     29  18  63 NW12      30.15R WCI  19
AHOSKIE*       CLEAR     27  15  59 N3        30.18R
EDENTON*       CLEAR     29  19  66 N15       30.15R WCI  18
CURRITUCK*     CLEAR     29  18  64 NW6       30.15R
KILL DEVIL HLS PTCLDY    31  23  71 NW10      30.10R WCI  23
MANTEO         PTCLDY    32  23  69 N16G22    30.12R WCI  21
CAPE HATTERAS  MOCLDY    33  25  72 N8G23     30.10R
TARBORO*       FAIR      29  20  68 NW3       30.19R
GOLDSBORO      CLEAR     28  22  81 CALM      30.16R
WASHINGTON     CLEAR     30  17  59 N9        30.16R
GREENVILLE     CLEAR     30  21  69 N7        30.18R
NEW BERN       CLEAR     32  21  64 N9        30.16R
WILMINGTON     CLEAR     29  17  61 N12       30.16R WCI  19
$$

VAZ048-281400-
ELSEWHERE

CITY           SKY/WX    TMP DP  RH WIND       PRES   REMARKS
HARRISBURG PA  CLEAR     19   3  49 NW15      30.16R WCI   5
BALTIMORE      PTCLDY    21   5  50 NW7       30.16R
ANNAPOLIS      CLEAR     23   7  50 NW9       30.17R
ANDREWS AFB    CLEAR     22   8  54 NW15      30.16R WCI   9
PHILADELPHIA   PTCLDY    20  -1  40 NW16G23   30.10R WCI   6
HENDERSON NC   CLEAR     26  14  60 CALM      30.17R
GREENSBORO     CLEAR     24  14  65 CALM      30.18R
ROCKY MOUNT    CLEAR     29  17  61 N9        30.18R
$$

VAZ100-281400-
MARINE

STATION/POSITION TIME  TEMP    WIND        PRES    WAVE   SWELL
                       AIR SEA DIR/SP/G            HT/PER HT/PER
                 (UTC) (F)     (DEG/KT/KT) (MB)    (FT/S) (FT/S)
BRANDYWINE LGT   1300   23 36  330/ 20/ 26 1018.7R
CAPE MAY NJ      1300   24 36  320/ 18/ 27 1018.4R
LEWES DE         1300   24 34  320/ 24/ 30 1019.1R
15NM E FENWICK I 1300   27 40              1017.3R   7/ 6
OCEAN-CITY-INLET 1300   24 37  340/ 13/ 18 1018.9R
WACHAPREAGUE VA  1300   28 38  330/  4/  9 1020.2R
THOMAS POINT MD  1300   23 36  320/ 11/ 15 1022.8R
GOOSES REEF MD   1300   25 36  VRB 17/ 19  1020.6R   2/ 3
COVE POINT MD    1300   24     340/ 19/ 25 1021.1R
SOLOMONS ISLAND  1300      37                N/A
BISHOPS HEAD MD  1300   25 33  330/ 12/ 16 1020.4R
PINEY POINT MD   1300          350/ 18/ 22   N/A
POTOMAC MD       1300   26 37  340/ 17/ 19 1020.6R
CAMBRIDGE MD     1300   25 35  320/ 18/ 21 1020.7R
LEWISETTA VA     1300   26 36  330/ 10/ 13 1021.7R
RAPPAHANNOCK LGT 1300          330/ 25/ 28 1020.9R
STINGRAY PT      1300   27 38  340/ 17/ 21 1021.7R   2/ 3
YORK RVR RNG VA  1300   29     340/ 17/ 21 1020.5R
YORKTOWN VA      1300   27 40  330/ 16/ 19 1021.4R
JAMESTOWN VA     1300   26 41  360/ 12/ 14   N/A     1
DOMINION TERM VA 1300   28     350/ 13/ 17 1021.4R
KIPTOPEKE VA     1300      44  360/ 13/ 19   N/A
CHES BAY BRIDGE  1300   29 41  330/ 20/ 25 1020.5R
CAPE HENRY VA    1300   29     320/ 19/ 26 1019.2R
CHESAPEAKE LGHT  1200   31     350/ 27/ 29 1019.1R
WILLOUBY STN VA  1300   27     340/ 14/ 17 1021.6R
S CRANEY ISL VA  1300          340/ 13/ 18 1021.0R
CAPE HENRY BUOY  1200      43                N/A     6/ 5   2/11
1ST LANDING BUOY 1300   31 41  340/ 19/ 23 1020.4R   3/ 4
CAPE CHARLES BUO 1300      41                N/A     5/13   3/13
OFFSHORE WE BUOY 1300      44                N/A     8/ 6   3/12
64NM E OF VA BCH 1300   35 51  350/ 23/ 29 1017.7R  11/14   8/14
DUCK PIER NC     1300   32 42  330/ 18/ 22 1018.7R
44100 DUCK FRF   1300      45                N/A     9/13   5/13
44056 DUCK FRF   1300      43                N/A     7/13   3/13
OREGON INLET NC  1300   33 42  340/ 15/ 25 1019.0R
HATTERAS NC      1300   35 47  350/ 20/ 26 1019.3R



USA.gov is the U.S. government's official web portal to all federal, state and local government web resources and services.